Regional Weather Roundup
Issued by NWS Jackson, KY

Home | Current Version | Previous Version | Text Only | Print | Product List | Glossary Off
Versions: 1 2 3 4 5 6 7 8 9 10 11 12 13 14 15 16 17 18 19 20 21 22 23 24 25 26 27 28 29 30 31 32 33 34 35 36 37 38 39 40 41 42 43 44 45 46 47 48 49 50

000
ASUS43 KJKL 300310
RWRJKL

EAST KENTUCKY HOURLY WEATHER ROUNDUP
NATIONAL WEATHER SERVICE JACKSON KY
1100 PM EDT SUN MAR 29 2015

NOTE: "FAIR" INDICATES FEW OR NO CLOUDS BELOW 12,000 FEET WITH
NO SIGNIFICANT WEATHER AND/OR OBSTRUCTIONS TO VISIBILITY.

* THESE REPORTS ARE NOT UNDER NWS QUALITY CONTROL AND MAY NOT
  REPORT WEATHER SUCH AS PRECIPITATION AND FOG.

KYZ079-080-083-085-087-088-110-112-115-119-120-300400
...EASTERN KENTUCKY...

CITY           SKY/WX    TMP DP  RH WIND       PRES   REMARKS
JACKSON        MOCLDY    51  16  24 VRB7      30.02F
LONDON         PTCLDY    51  18  27 SW5       30.05S
SOMERSET*      CLOUDY    52  23  32 SW7       30.08R
MONTICELLO*    MOCLDY    53  31  43 SW7       30.11R
MIDDLESBORO*   MOCLDY    54  25  32 S10G24    30.08F
HAZARD APT*    CLEAR     54  19  26 SW10      30.02F
BLACK MTN*       N/A     39  16  38 S14         N/A  WCI  31
PIKEVILLE APT* PTCLDY    50  12  22 S8        30.01F
BIG SANDY*     CLOUDY    53  12  19 SW6       30.02F
MOREHEAD APT*  CLOUDY    54  16  22 SW12      30.01F
$$

KYZ035-036-041-042-044-050-067-078-099-300400
...CENTRAL KENTUCKY...

CITY           SKY/WX    TMP DP  RH WIND       PRES   REMARKS
MT STERLING*   CLOUDY    52  21  30 SW15      29.99F
FLEMING/MASON* CLOUDY    52  21  30 S10       29.96F
DANVILLE*      CLOUDY    54  32  43 SW15G22   30.04S
RICHMOND*      CLOUDY    54  19  26 SW13G18   30.02S
LEXINGTON      CLOUDY    54  28  36 SW17      30.00S
FRANKFORT      CLOUDY    54  28  36 SW13      29.98R
$$

KYZ091>093-OHZ055-061-077-WVZ005-015-034-035-042-300400
...SOUTHERN OHIO/WEST VIRGINIA...

CITY           SKY/WX    TMP DP  RH WIND       PRES   REMARKS
COVINGTON      LGT RAIN  43  37  79 NW10      29.99R
COLUMBUS       LGT RAIN  42  35  76 SW14G23   29.98S
DAYTON         CLOUDY    42  34  73 SW10      29.95F
WILMINGTON     LGT RAIN  41  33  73 W6        29.99R
HUNTINGTON     CLOUDY    51   7  16 S8        29.99F
CHARLESTON     CLOUDY    52   5  15 SW8       30.00R
PINEVILLE*     MOCLDY    42  27  55 MISG      30.11R
BECKLEY        CLOUDY    45   6  20 S8        30.03R
BLUEFIELD      PTCLDY    45  10  24 SW8       30.04F
$$

VAZ002-007-008-TNZ017-027-036-066-071-300400
...SOUTHWEST VIRGINIA/EAST TENNESSEE...

CITY           SKY/WX    TMP DP  RH WIND       PRES   REMARKS
WISE*          CLOUDY    48  10  21 SW14G28   30.08R
JONESVILLE*    CLOUDY    45  23  42 CALM      30.12S
ABINGDON*      CLEAR     42  17  37 CALM      30.10F
BRISTOL        PTCLDY    40  23  50 CALM      30.12S
KNOXVILLE      PTCLDY    53  26  35 SW18      30.11F
OAK RIDGE      PTCLDY    56  24  29 SW9       30.13S
CROSSVILLE       N/A     52  29  41 S12G22    30.10S
NASHVILLE      CLOUDY    56  38  50 SW3       30.12R
$$

...KEY TO REMARKS...
VSB - VISIBILITY IN MILES
WCI - WIND CHILL INDEX
HX  - HEAT INDEX

$$


USA.gov is the U.S. government's official web portal to all federal, state and local government web resources and services.